Location: Obersdorf
(47.4079°N, 10.2781°E)
Time: 02:55:48
(UTC+02:00)

Envisat - Visible Passes

Search period start: 27 September 2021 00:00
Search period end: 07 October 2021 00:00
Orbit: 764 x 766 km, 98.2° (Epoch: 26 September)

Date Brightness Start Highest point End Pass type
(mag) Time Alt. Az. Time Alt. Az. Time Alt. Az.
27 Sep 3.5 06:23:49 10° NNE 06:28:53 65° ESE 06:33:55 10° S visible
28 Sep 5.0 05:47:20 10° NNE 05:51:51 31° E 05:56:20 10° SSE visible
29 Sep 5.9 05:11:42 10° NE 05:14:37 15° E 05:17:32 10° ESE visible
30 Sep 4.0 06:12:22 10° NNE 06:17:20 52° E 06:22:17 10° S visible
01 Oct 5.3 05:36:04 10° NE 05:40:15 25° E 05:44:25 10° SSE visible
02 Oct 6.1 05:01:02 10° ENE 05:02:56 12° E 05:04:51 10° ESE visible
02 Oct 3.1 06:37:36 10° NNE 06:42:44 86° ESE 06:47:48 10° SSW visible
03 Oct 4.4 06:00:57 10° NNE 06:05:47 41° E 06:10:34 10° SSE visible
04 Oct 5.7 05:24:52 10° NE 05:28:37 20° E 05:32:21 10° SE visible
05 Oct 3.4 06:26:06 10° NNE 06:31:12 69° ESE 06:36:16 10° S visible
06 Oct 4.8 05:49:35 10° NNE 05:54:11 33° E 05:58:45 10° SSE visible
